Location: Monroe
(41.9160°N, 83.3980°W)
Time: 23:07:39
(UTC-05:00)

ISS - All Passes

Search period start: 10 December 2017 00:00
Search period end: 20 December 2017 00:00
Orbit: 402 x 407 km, 51.6° (Epoch: 11 December)

Date Brightness Start Highest point End Pass type
(mag) Time Alt. Az. Time Alt. Az. Time Alt. Az.
10 Dec - 12:48:39 10° S 12:50:50 17° SE 12:53:02 10° E daylight
10 Dec - 14:23:46 10° WSW 14:27:01 59° NNW 14:30:17 10° NE daylight
10 Dec - 16:01:39 10° WNW 16:04:01 18° NNW 16:06:23 10° NNE daylight
10 Dec - 17:39:16 10° NNW 17:41:26 16° N 17:43:36 10° NE visible
10 Dec - 19:15:27 10° NW 19:18:34 40° NNE 19:21:42 10° E visible
10 Dec - 20:52:09 10° WNW 20:54:56 26° SW 20:57:44 10° SSE night (unlit)
11 Dec - 13:31:29 10° SW 13:34:47 76° SE 13:38:04 10° ENE daylight
11 Dec - 15:08:52 10° WNW 15:11:33 22° NNW 15:14:14 10° NE daylight
11 Dec - 16:46:54 10° NW 16:48:54 15° N 16:50:55 10° NE daylight
11 Dec - 18:23:20 10° NW 18:26:12 27° NNE 18:29:04 10° E visible
11 Dec - 19:59:37 10° WNW 20:02:50 50° SW 20:06:01 10° SE visible
12 Dec - 12:39:31 10° SSW 12:42:35 39° SE 12:45:42 10° ENE daylight
12 Dec - 14:16:08 10° W 14:19:08 31° NNW 14:22:07 10° NE daylight
12 Dec - 15:54:18 10° NW 15:56:22 15° N 15:58:26 10° NE daylight
12 Dec - 17:31:12 10° NW 17:33:45 20° NNE 17:36:18 10° ENE visible
12 Dec - 19:07:19 10° NW 19:10:37 85° NE 19:13:53 10° SE visible
12 Dec - 20:45:34 10° WSW 20:46:38 11° SW 20:47:41 10° SSW night (unlit)
13 Dec - 11:47:58 10° S 11:50:29 21° SE 11:53:02 10° E daylight
13 Dec - 13:23:33 10° WSW 13:26:46 48° NNW 13:29:58 10° NE daylight
13 Dec - 15:01:33 10° NW 15:03:49 17° N 15:06:05 10° NNE daylight
13 Dec - 16:38:59 10° NNW 16:41:15 17° N 16:43:29 10° NE daylight
13 Dec - 18:15:07 10° NW 18:18:19 47° NNE 18:21:30 10° ESE visible
13 Dec - 19:52:02 10° W 19:54:36 21° SW 19:57:08 10° S visible
14 Dec - 10:57:27 10° SSE 10:58:26 11° SE 10:59:26 10° ESE daylight
14 Dec - 12:31:09 10° SW 12:34:27 86° NNW 12:37:45 10° NE daylight
14 Dec - 14:08:44 10° WNW 14:11:18 21° NNW 14:13:53 10° NE daylight
14 Dec - 15:46:38 10° NW 15:48:41 15° N 15:50:44 10° NE daylight
14 Dec - 17:22:57 10° NW 17:25:56 30° NNE 17:28:54 10° E daylight
14 Dec - 18:59:22 10° WNW 19:02:28 39° SW 19:05:33 10° SSE visible
15 Dec - 11:39:02 10° SW 11:42:12 49° SE 11:45:24 10° ENE daylight
15 Dec - 13:15:56 10° W 13:18:49 27° NNW 13:21:42 10° NE daylight
15 Dec - 14:54:05 10° NW 14:56:06 15° N 14:58:08 10° NE daylight
15 Dec - 16:30:47 10° NW 16:33:28 22° NNE 16:36:08 10° ENE daylight
15 Dec - 18:06:57 10° WNW 18:10:15 78° SW 18:13:30 10° SE visible
16 Dec - 10:47:15 10° SSW 10:50:02 26° SE 10:52:49 10° ENE daylight
16 Dec - 12:23:15 10° W 12:26:23 40° NNW 12:29:32 10° NE daylight
16 Dec - 14:01:20 10° NW 14:03:31 16° N 14:05:42 10° NNE daylight
16 Dec - 15:38:35 10° NNW 15:40:56 18° NNE 15:43:17 10° ENE daylight
16 Dec - 17:14:40 10° NW 17:17:56 58° NNE 17:21:11 10° ESE daylight
16 Dec - 18:51:54 10° W 18:54:07 17° SW 18:56:19 10° S visible
17 Dec - 09:56:08 10° SSE 09:57:55 14° SE 09:59:42 10° E daylight
17 Dec - 11:30:45 10° WSW 11:34:01 70° NNW 11:37:19 10° NE daylight
17 Dec - 13:08:30 10° WNW 13:10:57 19° NNW 13:13:24 10° NE daylight
17 Dec - 14:46:15 10° NNW 14:48:21 16° N 14:50:27 10° NE daylight
17 Dec - 16:22:28 10° NW 16:25:32 35° NNE 16:28:35 10° E daylight
17 Dec - 17:59:01 10° WNW 18:01:59 31° SW 18:04:55 10° SSE visible
18 Dec - 10:38:28 10° SW 10:41:42 62° SE 10:44:58 10° ENE daylight
18 Dec - 12:15:38 10° WNW 12:18:24 24° NNW 12:21:11 10° NE daylight
18 Dec - 13:53:43 10° NW 13:55:43 15° N 13:57:45 10° NE daylight
18 Dec - 15:30:16 10° NW 15:33:03 25° NNE 15:35:50 10° ENE daylight
18 Dec - 17:06:29 10° WNW 17:09:45 61° SW 17:12:59 10° SE daylight
19 Dec - 09:46:31 10° SSW 09:49:28 32° SE 09:52:27 10° ENE daylight
19 Dec - 11:22:51 10° W 11:25:55 35° NNW 11:28:59 10° NE daylight
19 Dec - 13:01:00 10° NW 13:03:06 16° N 13:05:12 10° NNE daylight
19 Dec - 14:38:03 10° NW 14:40:30 19° NNE 14:42:58 10° ENE daylight
19 Dec - 16:14:08 10° NW 16:17:26 71° NNE 16:20:42 10° ESE daylight
19 Dec - 17:51:46 10° W 17:53:31 14° SW 17:55:15 10° SSW visible
